Regional Weather Roundup
Issued by NWS Albany, NY

Home | Current Version | Previous Version | Graphics & Text | Print | Product List | Glossary On
Versions: 1 2 3 4 5 6 7 8 9 10 11 12 13 14 15 16 17 18 19 20 21 22 23 24 25 26 27
000
ASUS41 KALY 200410
RWRALY

NEW YORK STATE HOURLY WEATHER ROUNDUP
NATIONAL WEATHER SERVICE ALBANY NY
1200 AM EDT THU JUL 20 2017

NOTE: "FAIR" INDICATES FEW OR NO CLOUDS BELOW 12,000 FEET WITH NO
SIGNIFICANT WEATHER AND/OR NO OBSTRUCTIONS TO VISIBILITY.

NYZ032-033-038>043-046>054-057>066-NYZ062>081-082-084-200500-
EAST


CITY           SKY/WX    TMP DP  RH WIND       PRES   REMARKS
ALBANY         PTCLDY    72  64  76 CALM      29.99F
GLENS FALLS    PTCLDY    69  66  90 CALM      29.97F
POUGHKEEPSIE   CLOUDY    70  65  84 CALM      29.98S
NEWBURGH       CLEAR     75  66  73 W5        30.02S
MONTGOMERY     CLEAR     70  66  87 CALM      29.99F
ISLIP          MOCLDY    76  73  91 SW3       29.98S
NEW YORK CITY  MOCLDY    84  73  69 E3        29.98R HX  90
CENTRAL PARK   CLEAR     84  66  54 CALM      30.01S
$$

NYZ005>009-017-018-044>046-055-056-200500-
CENTRAL


CITY           SKY/WX    TMP DP  RH WIND       PRES   REMARKS
FULTON         MOCLDY    71  66  84 CALM      30.00S
SYRACUSE       MOCLDY    73  69  87 CALM      29.99S
ROME           MOCLDY    72  68  87 NE3       30.01R
ELMIRA         CLEAR     67  66  97 W3        30.04S
BINGHAMTON     CLEAR     73  65  75 W3        30.06F
$$

NYZ026>034-041>043-087-200500-
NORTH


CITY           SKY/WX    TMP DP  RH WIND       PRES   REMARKS
WATERTOWN      CLEAR     69  63  81 CALM      29.98R
FORT DRUM      NOT AVBL
OGDENSBURG     FAIR      67  65  93 CALM      29.96R
MASSENA        CLEAR     67  67 100 CALM      29.96R
SARANAC LAKE   PTCLDY    61  61 100 S5        30.02S FOG
PLATTSBURGH    CLOUDY    72  65  78 CALM      29.94S
$$

NYZ001>004-010>016-019>021-085-200500-
WEST


CITY           SKY/WX    TMP DP  RH WIND       PRES   REMARKS
NIAGARA FALLS  MOCLDY    75  66  73 W5        30.03R
BUFFALO        PTCLDY    72  69  90 SW3       30.03S
DUNKIRK        PTCLDY    70  65  84 SW3       30.05S
JAMESTOWN      CLEAR     70  59  68 W8        30.10F
WELLSVILLE     CLEAR     71  58  63 W8        30.13S
ROCHESTER      CLEAR     74  68  81 W6        30.02S
PENN YAN       CLEAR     73  65  75 SW5       30.04S
$$

             KEY
       WCI = WIND CHILL INDEX
       VSB = VISIBILITY
       HX  = HEAT INDEX
$$




USA.gov is the U.S. government's official web portal to all federal, state and local government web resources and services.